GSAT-15 (GAGAN/PRN 139)

Last updated on Tue Jul 08 2025 00:03:23 GMT+0000 (Coordinated Universal Time)

1 41028U 15065A 25188.58209266 -.00000241 00000+0 00000+0 0 9990 2 41028 0.0384 242.7954 0003763 203.6845 142.3679 1.00272646 35347
UTC large
Height (km)
Speed (km/s)
/
Latitude / Longitude
Inclination (degrees)
Orbital Period (minutes)
Azimuth
Elevation
Range (km)
Doppler Factor

Next 0 passes for location: London (51.5072 / 0.1276)

Sorry there are no passes over London.